Time,TemperatureF,DewpointF,PressureIn,WindDirection,WindDirectionDegrees,WindSpeedMPH,WindSpeedGustMPH,Humidity,HourlyPrecipIn,Conditions,Clouds,dailyrainin,SoftwareType,DateUTC
2013-05-29 00:01:00,58.1,56.7,29.88,ENE,68,0.0,0.0,95,0.29,,,0.00,VWS V14.01,2013-05-29 05:01:00,
2013-05-29 00:06:00,58.1,57.0,29.88,NE,45,0.0,0.0,96,0.29,,,0.00,VWS V14.01,2013-05-29 05:06:00,
2013-05-29 00:11:00,58.1,57.0,29.88,NE,45,0.0,0.0,96,0.29,,,0.00,VWS V14.01,2013-05-29 05:11:00,
2013-05-29 00:16:00,58.1,57.0,29.88,NE,45,0.0,0.0,96,0.29,,,0.00,VWS V14.01,2013-05-29 05:16:00,
2013-05-29 00:21:00,58.1,57.0,29.88,NE,45,0.0,0.0,96,0.29,,,0.00,VWS V14.01,2013-05-29 05:21:00,
2013-05-29 00:26:00,58.1,57.0,29.88,NE,45,0.0,0.0,96,0.29,,,0.00,VWS V14.01,2013-05-29 05:26:00,
2013-05-29 00:31:00,58.1,57.3,29.88,NE,45,0.0,0.0,97,0.29,,,0.00,VWS V14.01,2013-05-29 05:31:00,
2013-05-29 00:36:00,58.1,57.0,29.88,NE,45,0.0,0.0,96,0.29,,,0.00,VWS V14.01,2013-05-29 05:36:00,
2013-05-29 00:41:00,58.1,57.0,29.88,NE,45,0.0,0.0,96,0.29,,,0.00,VWS V14.01,2013-05-29 05:41:00,
2013-05-29 00:46:00,57.9,56.8,29.88,NE,45,0.0,0.0,96,0.29,,,0.00,VWS V14.01,2013-05-29 05:46:00,
2013-05-29 00:51:00,57.9,56.8,29.88,NE,45,0.0,0.0,96,0.29,,,0.00,VWS V14.01,2013-05-29 05:51:00,
2013-05-29 00:56:00,57.9,57.1,29.88,NE,45,0.0,0.0,97,0.00,,,0.00,VWS V14.01,2013-05-29 05:56:00,
2013-05-29 01:01:00,57.9,57.1,29.88,WNW,292,0.0,0.0,97,0.00,,,0.00,VWS V14.01,2013-05-29 06:01:00,
2013-05-29 01:06:00,57.9,57.1,29.88,NW,315,0.0,0.0,97,0.00,,,0.00,VWS V14.01,2013-05-29 06:06:00,
2013-05-29 01:11:00,57.9,57.1,29.88,NW,315,0.0,0.0,97,0.00,,,0.00,VWS V14.01,2013-05-29 06:11:00,
2013-05-29 01:16:00,57.9,57.1,29.88,NW,315,0.0,0.0,97,0.00,,,0.00,VWS V14.01,2013-05-29 06:16:00,
2013-05-29 01:21:00,57.9,57.1,29.88,NW,315,0.0,0.0,97,0.00,,,0.00,VWS V14.01,2013-05-29 06:21:00,
2013-05-29 01:26:00,57.9,57.1,29.88,NW,315,0.0,0.0,97,0.00,,,0.00,VWS V14.01,2013-05-29 06:26:00,
2013-05-29 01:31:00,57.9,57.1,29.85,NW,315,0.0,0.0,97,0.00,,,0.00,VWS V14.01,2013-05-29 06:31:00,
2013-05-29 01:36:00,57.7,56.9,29.85,NW,315,0.0,0.0,97,0.00,,,0.00,VWS V14.01,2013-05-29 06:36:00,
2013-05-29 01:41:00,57.7,56.9,29.85,NE,45,1.1,1.1,97,0.00,,,0.00,VWS V14.01,2013-05-29 06:41:00,
2013-05-29 01:46:00,57.7,56.9,29.91,ENE,68,0.0,0.0,97,0.00,,,0.00,VWS V14.01,2013-05-29 06:46:00,
2013-05-29 01:51:00,57.6,56.7,29.91,ENE,68,0.0,0.0,97,0.00,,,0.00,VWS V14.01,2013-05-29 06:51:00,
2013-05-29 01:56:00,57.6,56.7,29.91,ENE,68,0.0,0.0,97,0.00,,,0.00,VWS V14.01,2013-05-29 06:56:00,
2013-05-29 02:01:00,57.6,56.7,29.88,NE,45,0.0,0.0,97,0.00,,,0.00,VWS V14.01,2013-05-29 07:01:00,
2013-05-29 02:06:00,57.6,57.0,29.88,NNE,22,0.0,0.0,98,0.00,,,0.00,VWS V14.01,2013-05-29 07:06:00,
2013-05-29 02:11:00,57.4,56.8,29.88,NNE,22,0.0,0.0,98,0.00,,,0.00,VWS V14.01,2013-05-29 07:11:00,
2013-05-29 02:16:00,57.4,56.8,29.88,NNE,22,0.0,0.0,98,0.00,,,0.00,VWS V14.01,2013-05-29 07:16:00,
2013-05-29 02:21:00,57.4,56.8,29.88,East,90,0.0,0.0,98,0.00,,,0.00,VWS V14.01,2013-05-29 07:21:00,
2013-05-29 02:26:00,57.4,56.8,29.88,East,90,0.0,0.0,98,0.00,,,0.00,VWS V14.01,2013-05-29 07:26:00,
2013-05-29 02:31:00,57.4,56.8,29.88,East,90,0.0,0.0,98,0.00,,,0.00,VWS V14.01,2013-05-29 07:31:00,
2013-05-29 02:36:00,57.4,56.8,29.88,East,90,0.0,0.0,98,0.00,,,0.00,VWS V14.01,2013-05-29 07:36:00,
2013-05-29 02:41:00,57.4,56.8,29.88,NE,45,0.0,0.0,98,0.00,,,0.00,VWS V14.01,2013-05-29 07:41:00,
2013-05-29 02:46:00,57.4,56.8,29.85,NE,45,0.0,0.0,98,0.00,,,0.00,VWS V14.01,2013-05-29 07:46:00,
2013-05-29 02:51:00,57.4,56.8,29.85,NE,45,0.0,0.0,98,0.00,,,0.00,VWS V14.01,2013-05-29 07:51:00,
2013-05-29 02:56:00,57.4,56.8,29.85,NE,45,0.0,0.0,98,0.00,,,0.00,VWS V14.01,2013-05-29 07:56:00,
2013-05-29 03:01:00,57.2,56.6,29.88,NE,45,0.0,0.0,98,0.00,,,0.00,VWS V14.01,2013-05-29 08:01:00,
2013-05-29 03:06:00,57.2,56.6,29.88,East,90,0.0,0.0,98,0.00,,,0.00,VWS V14.01,2013-05-29 08:06:00,
2013-05-29 03:11:00,56.8,56.3,29.88,ENE,68,0.0,0.0,98,0.00,,,0.00,VWS V14.01,2013-05-29 08:11:00,
2013-05-29 03:16:00,56.7,56.1,29.88,North,0,0.0,0.0,98,0.00,,,0.00,VWS V14.01,2013-05-29 08:16:00,
2013-05-29 03:21:00,56.7,56.1,29.88,North,0,0.0,0.0,98,0.00,,,0.00,VWS V14.01,2013-05-29 08:21:00,
2013-05-29 03:26:00,56.5,55.9,29.88,North,0,0.0,0.0,98,0.00,,,0.00,VWS V14.01,2013-05-29 08:26:00,
2013-05-29 03:31:00,56.3,55.8,29.85,North,0,0.0,0.0,98,0.00,,,0.00,VWS V14.01,2013-05-29 08:31:00,
2013-05-29 03:36:00,56.1,55.6,29.85,NNE,22,0.0,0.0,98,0.00,,,0.00,VWS V14.01,2013-05-29 08:36:00,
2013-05-29 03:41:00,55.9,55.4,29.85,NNE,22,0.0,0.0,98,0.00,,,0.00,VWS V14.01,2013-05-29 08:41:00,
2013-05-29 03:46:00,55.9,55.4,29.88,NNE,22,1.3,1.3,98,0.00,,,0.00,VWS V14.01,2013-05-29 08:46:00,
2013-05-29 03:51:00,55.4,54.8,29.88,NNE,22,0.0,0.0,98,0.00,,,0.00,VWS V14.01,2013-05-29 08:51:00,
2013-05-29 03:56:00,55.2,54.7,29.88,NNE,22,0.0,0.0,98,0.00,,,0.00,VWS V14.01,2013-05-29 08:56:00,
2013-05-29 04:01:00,54.9,54.3,29.88,NNE,22,0.0,0.0,98,0.00,,,0.00,VWS V14.01,2013-05-29 09:01:00,
2013-05-29 04:06:00,54.7,54.1,29.88,NNE,22,0.0,0.0,98,0.00,,,0.00,VWS V14.01,2013-05-29 09:06:00,
2013-05-29 04:11:00,54.5,54.0,29.88,NNE,22,0.0,0.0,98,0.00,,,0.00,VWS V14.01,2013-05-29 09:11:00,
2013-05-29 04:16:00,54.3,53.8,29.88,NNE,22,0.0,0.0,98,0.00,,,0.00,VWS V14.01,2013-05-29 09:16:00,
2013-05-29 04:21:00,54.3,53.8,29.88,NNE,22,0.0,0.0,98,0.00,,,0.00,VWS V14.01,2013-05-29 09:21:00,
2013-05-29 04:26:00,54.0,53.4,29.88,NNE,22,0.0,0.0,98,0.00,,,0.00,VWS V14.01,2013-05-29 09:26:00,
2013-05-29 04:31:00,54.0,53.4,29.88,NNE,22,0.9,0.9,98,0.00,,,0.00,VWS V14.01,2013-05-29 09:31:00,
2013-05-29 04:36:00,53.8,53.2,29.88,NE,45,0.0,0.0,98,0.00,,,0.00,VWS V14.01,2013-05-29 09:36:00,
2013-05-29 04:41:00,53.6,53.0,29.88,NE,45,0.0,0.0,98,0.00,,,0.00,VWS V14.01,2013-05-29 09:41:00,
2013-05-29 04:46:00,53.2,52.7,29.88,NE,45,0.0,0.0,98,0.00,,,0.00,VWS V14.01,2013-05-29 09:46:00,
2013-05-29 04:51:00,53.2,52.7,29.88,ENE,68,0.0,0.0,98,0.00,,,0.00,VWS V14.01,2013-05-29 09:51:00,
2013-05-29 04:55:00,53.2,52.7,29.88,ENE,68,0.0,0.0,98,0.00,,,0.00,VWS V14.01,2013-05-29 09:55:00,
2013-05-29 05:00:00,53.2,52.7,29.91,ENE,68,0.0,0.0,98,0.00,,,0.00,VWS V14.01,2013-05-29 10:00:00,
2013-05-29 05:05:00,53.1,52.5,29.91,East,90,0.0,0.0,98,0.00,,,0.00,VWS V14.01,2013-05-29 10:05:00,
2013-05-29 05:10:00,53.1,52.5,29.91,East,90,0.0,0.0,98,0.00,,,0.00,VWS V14.01,2013-05-29 10:10:00,
2013-05-29 05:15:00,53.1,52.5,29.88,East,90,0.0,0.0,98,0.00,,,0.00,VWS V14.01,2013-05-29 10:15:00,
2013-05-29 05:20:00,53.2,52.7,29.88,SSW,202,1.1,1.1,98,0.00,,,0.00,VWS V14.01,2013-05-29 10:20:00,
2013-05-29 05:25:00,53.4,52.9,29.88,SSW,202,1.1,1.1,98,0.00,,,0.00,VWS V14.01,2013-05-29 10:25:00,
2013-05-29 05:30:00,53.1,52.5,29.88,SSW,202,1.1,1.1,98,0.00,,,0.00,VWS V14.01,2013-05-29 10:30:00,
2013-05-29 05:35:00,52.9,52.3,29.88,East,90,0.0,1.1,98,0.00,,,0.00,VWS V14.01,2013-05-29 10:35:00,
2013-05-29 05:40:00,52.7,52.2,29.88,ENE,68,0.0,0.0,98,0.00,,,0.00,VWS V14.01,2013-05-29 10:40:00,
2013-05-29 05:45:00,52.5,52.0,29.85,ENE,68,1.1,1.1,98,0.00,,,0.00,VWS V14.01,2013-05-29 10:45:00,
2013-05-29 05:50:00,52.5,52.0,29.85,ENE,68,1.1,1.1,98,0.00,,,0.00,VWS V14.01,2013-05-29 10:50:00,
2013-05-29 05:55:00,53.2,52.7,29.85,SSE,158,2.7,2.7,98,0.00,,,0.00,VWS V14.01,2013-05-29 10:55:00,
2013-05-29 06:00:00,53.6,53.0,29.88,SSE,158,2.7,2.7,98,0.00,,,0.00,VWS V14.01,2013-05-29 11:00:00,
2013-05-29 06:05:00,53.8,53.2,29.88,SSE,158,2.7,2.7,98,0.00,,,0.00,VWS V14.01,2013-05-29 11:05:00,
2013-05-29 06:10:00,53.8,53.2,29.88,SSE,158,2.7,2.7,98,0.00,,,0.00,VWS V14.01,2013-05-29 11:10:00,
2013-05-29 06:15:00,54.0,53.4,29.88,SSE,158,2.7,2.7,98,0.00,,,0.00,VWS V14.01,2013-05-29 11:15:00,
2013-05-29 06:20:00,54.3,53.8,29.88,SSE,158,2.7,2.7,98,0.00,,,0.00,VWS V14.01,2013-05-29 11:20:00,
2013-05-29 06:25:00,54.5,54.0,29.88,SSE,158,2.7,2.7,98,0.00,,,0.00,VWS V14.01,2013-05-29 11:25:00,
2013-05-29 06:30:00,54.9,54.3,29.88,South,180,0.0,0.0,98,0.00,,,0.00,VWS V14.01,2013-05-29 11:30:00,
2013-05-29 06:35:00,55.2,54.7,29.88,SSE,158,3.8,3.8,98,0.00,,,0.00,VWS V14.01,2013-05-29 11:35:00,
2013-05-29 06:40:00,55.9,55.4,29.88,SSE,158,4.0,4.0,98,0.00,,,0.00,VWS V14.01,2013-05-29 11:40:00,
2013-05-29 06:45:00,56.1,55.6,29.91,SSE,158,2.9,2.9,98,0.00,,,0.00,VWS V14.01,2013-05-29 11:45:00,
2013-05-29 06:50:00,56.3,55.8,29.91,South,180,1.6,1.6,98,0.00,,,0.00,VWS V14.01,2013-05-29 11:50:00,
2013-05-29 06:55:00,56.7,56.1,29.91,SSE,158,2.0,2.0,98,0.00,,,0.00,VWS V14.01,2013-05-29 11:55:00,
2013-05-29 07:00:00,56.7,56.1,29.91,South,180,2.7,2.7,98,0.00,,,0.00,VWS V14.01,2013-05-29 12:00:00,
2013-05-29 07:05:00,56.8,56.3,29.91,SSW,202,2.0,2.0,98,0.00,,,0.00,VWS V14.01,2013-05-29 12:05:00,
2013-05-29 07:10:00,57.2,56.6,29.91,SSE,158,2.9,2.9,98,0.00,,,0.00,VWS V14.01,2013-05-29 12:10:00,
2013-05-29 07:15:00,57.6,57.0,29.91,SE,135,1.1,1.1,98,0.00,,,0.00,VWS V14.01,2013-05-29 12:15:00,
2013-05-29 07:20:00,57.9,57.4,29.91,SSE,158,2.2,2.2,98,0.00,,,0.00,VWS V14.01,2013-05-29 12:20:00,
2013-05-29 07:25:00,58.3,57.7,29.91,SSE,158,2.2,2.2,98,0.00,,,0.00,VWS V14.01,2013-05-29 12:25:00,
2013-05-29 07:30:00,58.8,58.3,29.88,SSE,158,1.1,1.1,98,0.00,,,0.00,VWS V14.01,2013-05-29 12:30:00,
2013-05-29 07:35:00,59.0,58.4,29.88,SSE,158,0.0,0.0,98,0.00,,,0.00,VWS V14.01,2013-05-29 12:35:00,
2013-05-29 07:40:00,59.4,58.8,29.88,SE,135,2.0,2.0,98,0.00,,,0.00,VWS V14.01,2013-05-29 12:40:00,
2013-05-29 07:45:00,59.7,59.2,29.88,SSE,158,0.0,2.0,98,0.00,,,0.00,VWS V14.01,2013-05-29 12:45:00,
2013-05-29 07:50:00,60.3,59.7,29.88,SE,135,0.0,0.9,98,0.00,,,0.00,VWS V14.01,2013-05-29 12:50:00,
2013-05-29 07:55:00,61.0,60.4,29.88,South,180,3.1,3.1,98,0.00,,,0.00,VWS V14.01,2013-05-29 12:55:00,
2013-05-29 08:00:00,61.2,60.6,29.91,South,180,1.6,6.3,98,0.00,,,0.00,VWS V14.01,2013-05-29 13:00:00,
2013-05-29 08:05:00,61.3,60.8,29.91,SSE,158,5.4,5.4,98,0.00,,,0.00,VWS V14.01,2013-05-29 13:05:00,
2013-05-29 08:10:00,61.9,61.3,29.91,SSE,158,1.6,3.1,98,0.00,,,0.00,VWS V14.01,2013-05-29 13:10:00,
2013-05-29 08:15:00,62.4,61.8,29.91,SSE,158,2.9,2.9,98,0.00,,,0.00,VWS V14.01,2013-05-29 13:15:00,
2013-05-29 08:20:00,62.6,61.7,29.91,SSW,202,1.6,2.7,97,0.00,,,0.00,VWS V14.01,2013-05-29 13:20:00,
2013-05-29 08:25:00,62.8,61.6,29.91,SSW,202,1.3,1.3,96,0.00,,,0.00,VWS V14.01,2013-05-29 13:25:00,
2013-05-29 08:30:00,62.6,61.2,29.94,SSE,158,4.3,5.4,95,0.00,,,0.00,VWS V14.01,2013-05-29 13:30:00,
2013-05-29 08:35:00,62.4,60.7,29.94,SE,135,2.0,3.1,94,0.00,,,0.00,VWS V14.01,2013-05-29 13:35:00,
2013-05-29 08:40:00,62.2,60.5,29.94,East,90,2.5,2.5,94,0.00,,,0.00,VWS V14.01,2013-05-29 13:40:00,
2013-05-29 08:45:00,63.0,61.5,29.91,NE,45,0.9,0.9,95,0.00,,,0.00,VWS V14.01,2013-05-29 13:45:00,
2013-05-29 08:50:00,63.1,61.4,29.91,NE,45,2.7,3.4,94,0.00,,,0.00,VWS V14.01,2013-05-29 13:50:00,
2013-05-29 08:55:00,64.2,62.5,29.91,NNW,338,2.5,3.1,94,0.00,,,0.00,VWS V14.01,2013-05-29 13:55:00,
2013-05-29 09:00:00,65.1,63.0,29.91,NNW,338,1.1,3.1,93,0.00,,,0.00,VWS V14.01,2013-05-29 14:00:00,
2013-05-29 09:05:00,65.5,63.4,29.91,SE,135,0.9,1.6,93,0.00,,,0.00,VWS V14.01,2013-05-29 14:05:00,
2013-05-29 09:10:00,65.7,63.0,29.91,NE,45,0.0,3.6,91,0.00,,,0.00,VWS V14.01,2013-05-29 14:10:00,
2013-05-29 09:15:00,65.3,62.3,29.91,SW,225,1.1,2.5,90,0.00,,,0.00,VWS V14.01,2013-05-29 14:15:00,
2013-05-29 09:20:00,65.3,62.3,29.91,WSW,248,2.0,2.5,90,0.00,,,0.00,VWS V14.01,2013-05-29 14:20:00,
2013-05-29 09:25:00,66.2,62.5,29.91,ESE,112,3.6,4.9,88,0.00,,,0.00,VWS V14.01,2013-05-29 14:25:00,
2013-05-29 09:30:00,66.2,62.2,29.91,SSE,158,4.0,4.5,87,0.00,,,0.00,VWS V14.01,2013-05-29 14:30:00,
2013-05-29 09:35:00,66.2,62.2,29.91,SSE,158,0.0,2.5,87,0.00,,,0.00,VWS V14.01,2013-05-29 14:35:00,
2013-05-29 09:40:00,66.7,62.8,29.91,SSE,158,3.6,4.0,87,0.00,,,0.00,VWS V14.01,2013-05-29 14:40:00,
2013-05-29 09:45:00,66.9,62.9,29.88,ENE,68,3.1,3.4,87,0.00,,,0.00,VWS V14.01,2013-05-29 14:45:00,
2013-05-29 09:50:00,66.7,62.4,29.88,SE,135,1.1,2.5,86,0.00,,,0.00,VWS V14.01,2013-05-29 14:50:00,
2013-05-29 09:55:00,67.1,63.1,29.88,SSW,202,0.9,2.0,87,0.00,,,0.00,VWS V14.01,2013-05-29 14:55:00,
2013-05-29 10:00:00,66.9,62.6,29.88,SSE,158,1.6,3.1,86,0.00,,,0.00,VWS V14.01,2013-05-29 15:00:00,
2013-05-29 10:05:00,67.3,63.0,29.88,NNW,338,3.6,3.6,86,0.00,,,0.00,VWS V14.01,2013-05-29 15:05:00,
2013-05-29 10:10:00,67.8,63.5,29.88,SSE,158,2.7,2.7,86,0.00,,,0.00,VWS V14.01,2013-05-29 15:10:00,
2013-05-29 10:15:00,66.9,61.6,29.85,SSE,158,3.4,5.8,83,0.00,,,0.00,VWS V14.01,2013-05-29 15:15:00,
2013-05-29 10:20:00,68.5,63.9,29.85,ENE,68,6.0,6.0,85,0.00,,,0.00,VWS V14.01,2013-05-29 15:20:00,
2013-05-29 10:25:00,69.3,63.9,29.85,South,180,2.2,2.2,83,0.00,,,0.00,VWS V14.01,2013-05-29 15:25:00,
2013-05-29 10:30:00,68.4,62.7,29.85,ENE,68,4.3,4.3,82,0.00,,,0.00,VWS V14.01,2013-05-29 15:30:00,
2013-05-29 10:35:00,68.0,62.3,29.85,SE,135,3.6,3.6,82,0.00,,,0.00,VWS V14.01,2013-05-29 15:35:00,
2013-05-29 10:40:00,67.8,62.8,29.85,SSE,158,1.6,2.5,84,0.00,,,0.00,VWS V14.01,2013-05-29 15:40:00,
2013-05-29 10:45:00,68.2,62.8,29.88,NW,315,1.6,6.3,83,0.00,,,0.00,VWS V14.01,2013-05-29 15:45:00,
2013-05-29 10:50:00,68.5,62.8,29.88,SE,135,7.4,7.4,82,0.00,,,0.00,VWS V14.01,2013-05-29 15:50:00,
2013-05-29 10:55:00,68.7,63.3,29.88,North,0,2.0,3.4,83,0.00,,,0.00,VWS V14.01,2013-05-29 15:55:00,
2013-05-29 11:00:00,70.0,63.9,29.85,WNW,292,3.6,6.7,81,0.00,,,0.00,VWS V14.01,2013-05-29 16:00:00,
2013-05-29 11:05:00,70.0,63.5,29.85,SSE,158,2.7,6.3,80,0.00,,,0.00,VWS V14.01,2013-05-29 16:05:00,
2013-05-29 11:10:00,71.1,64.6,29.85,WSW,248,2.2,3.6,80,0.00,,,0.00,VWS V14.01,2013-05-29 16:10:00,
2013-05-29 11:15:00,72.0,64.7,29.85,WSW,248,1.6,2.5,78,0.00,,,0.00,VWS V14.01,2013-05-29 16:15:00,
2013-05-29 11:20:00,73.9,66.3,29.85,South,180,0.9,1.6,77,0.00,,,0.00,VWS V14.01,2013-05-29 16:20:00,
2013-05-29 11:25:00,73.9,65.5,29.85,WNW,292,3.6,3.6,75,0.00,,,0.00,VWS V14.01,2013-05-29 16:25:00,
2013-05-29 11:30:00,73.2,64.4,29.88,NNE,22,1.3,3.1,74,0.00,,,0.00,VWS V14.01,2013-05-29 16:30:00,
2013-05-29 11:35:00,73.9,65.5,29.88,NW,315,1.3,2.0,75,0.00,,,0.00,VWS V14.01,2013-05-29 16:35:00,
2013-05-29 11:40:00,73.8,64.2,29.88,SE,135,2.0,3.6,72,0.00,,,0.00,VWS V14.01,2013-05-29 16:40:00,
2013-05-29 11:45:00,73.2,64.4,29.85,SE,135,7.8,7.8,74,0.00,,,0.00,VWS V14.01,2013-05-29 16:45:00,
2013-05-29 11:50:00,72.3,64.3,29.85,SSE,158,3.4,3.8,76,0.00,,,0.00,VWS V14.01,2013-05-29 16:50:00,
2013-05-29 11:55:00,71.4,63.8,29.85,WSW,248,2.5,7.4,77,0.00,,,0.00,VWS V14.01,2013-05-29 16:55:00,
2013-05-29 12:00:00,71.8,64.6,29.88,SSE,158,0.0,2.0,78,0.00,,,0.00,VWS V14.01,2013-05-29 17:00:00,
2013-05-29 12:05:00,72.7,65.4,29.88,South,180,0.0,2.0,78,0.00,,,0.00,VWS V14.01,2013-05-29 17:05:00,
2013-05-29 12:10:00,72.9,65.6,29.88,SW,225,2.7,2.7,78,0.00,,,0.00,VWS V14.01,2013-05-29 17:10:00,
2013-05-29 12:15:00,73.2,66.0,29.88,WNW,292,1.1,2.5,78,0.00,,,0.00,VWS V14.01,2013-05-29 17:15:00,
2013-05-29 12:20:00,73.2,66.0,29.88,SSE,158,2.0,2.7,78,0.00,,,0.00,VWS V14.01,2013-05-29 17:20:00,
2013-05-29 12:25:00,74.8,67.2,29.88,South,180,0.9,1.1,77,0.00,,,0.00,VWS V14.01,2013-05-29 17:25:00,
2013-05-29 12:30:00,78.1,69.1,29.82,NE,45,2.5,3.6,74,0.00,,,0.00,VWS V14.01,2013-05-29 17:30:00,
2013-05-29 12:35:00,78.3,67.7,29.82,SSW,202,2.7,2.7,70,0.00,,,0.00,VWS V14.01,2013-05-29 17:35:00,
2013-05-29 12:40:00,79.0,67.9,29.82,SSE,158,3.6,3.6,69,0.00,,,0.00,VWS V14.01,2013-05-29 17:40:00,
2013-05-29 12:45:00,77.7,66.3,29.82,South,180,0.9,2.5,68,0.00,,,0.00,VWS V14.01,2013-05-29 17:45:00,
2013-05-29 12:50:00,78.1,66.2,29.82,NNW,338,2.0,3.8,67,0.00,,,0.00,VWS V14.01,2013-05-29 17:50:00,
2013-05-29 12:55:00,79.3,67.4,29.82,WNW,292,1.6,2.9,67,0.00,,,0.00,VWS V14.01,2013-05-29 17:55:00,
2013-05-29 13:00:00,80.4,67.6,29.82,SE,135,2.0,2.9,65,0.00,,,0.00,VWS V14.01,2013-05-29 18:00:00,
2013-05-29 13:05:00,79.9,66.6,29.82,WNW,292,6.5,6.5,64,0.00,,,0.00,VWS V14.01,2013-05-29 18:05:00,
2013-05-29 13:10:00,80.8,67.9,29.82,South,180,5.8,8.1,65,0.00,,,0.00,VWS V14.01,2013-05-29 18:10:00,
2013-05-29 13:15:00,80.1,67.2,29.82,South,180,1.1,1.1,65,0.00,,,0.00,VWS V14.01,2013-05-29 18:15:00,
2013-05-29 13:20:00,78.8,66.1,29.82,SSW,202,4.3,4.3,65,0.00,,,0.00,VWS V14.01,2013-05-29 18:20:00,
2013-05-29 13:25:00,77.4,66.0,29.82,NNW,338,2.9,3.4,68,0.00,,,0.00,VWS V14.01,2013-05-29 18:25:00,
2013-05-29 13:30:00,77.7,67.2,29.82,SSE,158,3.6,3.6,70,0.00,,,0.00,VWS V14.01,2013-05-29 18:30:00,
2013-05-29 13:35:00,77.9,67.3,29.82,SSE,158,3.1,3.1,70,0.00,,,0.00,VWS V14.01,2013-05-29 18:35:00,
2013-05-29 13:40:00,76.1,66.0,29.82,SSW,202,5.4,5.4,71,0.00,,,0.00,VWS V14.01,2013-05-29 18:40:00,
2013-05-29 13:45:00,74.8,66.0,29.79,SSW,202,3.4,5.8,74,0.00,,,0.00,VWS V14.01,2013-05-29 18:45:00,
2013-05-29 13:50:00,74.8,66.8,29.79,NNE,22,2.7,5.4,76,0.00,,,0.00,VWS V14.01,2013-05-29 18:50:00,
2013-05-29 13:55:00,75.9,67.4,29.79,ESE,112,2.0,2.0,75,0.00,,,0.00,VWS V14.01,2013-05-29 18:55:00,
2013-05-29 14:00:00,76.3,67.8,29.79,SSE,158,1.3,2.0,75,0.00,,,0.00,VWS V14.01,2013-05-29 19:00:00,
2013-05-29 14:05:00,75.9,67.4,29.82,South,180,2.5,2.5,75,0.00,,,0.00,VWS V14.01,2013-05-29 19:05:00,
2013-05-29 14:10:00,75.4,67.3,29.82,SSE,158,1.3,1.3,76,0.00,,,0.00,VWS V14.01,2013-05-29 19:10:00,
2013-05-29 14:15:00,76.3,68.6,29.82,WSW,248,1.3,1.3,77,0.00,,,0.00,VWS V14.01,2013-05-29 19:15:00,
2013-05-29 14:20:00,77.0,68.5,29.82,NE,45,3.6,3.6,75,0.00,,,0.00,VWS V14.01,2013-05-29 19:20:00,
2013-05-29 14:25:00,77.5,69.0,29.82,NE,45,1.3,3.6,75,0.00,,,0.00,VWS V14.01,2013-05-29 19:25:00,
2013-05-29 14:30:00,77.5,68.2,29.82,South,180,4.7,4.7,73,0.00,,,0.00,VWS V14.01,2013-05-29 19:30:00,
2013-05-29 14:35:00,78.1,69.1,29.82,SE,135,2.5,2.5,74,0.00,,,0.00,VWS V14.01,2013-05-29 19:35:00,
2013-05-29 14:40:00,77.5,68.2,29.82,SSE,158,5.6,5.6,73,0.00,,,0.00,VWS V14.01,2013-05-29 19:40:00,
2013-05-29 14:45:00,76.1,67.6,29.85,South,180,2.9,2.9,75,0.00,,,0.00,VWS V14.01,2013-05-29 19:45:00,
2013-05-29 14:50:00,75.9,68.2,29.85,SSE,158,2.5,2.5,77,0.00,,,0.00,VWS V14.01,2013-05-29 19:50:00,
2013-05-29 14:55:00,75.0,68.1,29.85,SSE,158,1.1,1.1,79,0.00,,,0.00,VWS V14.01,2013-05-29 19:55:00,
2013-05-29 15:00:00,74.7,68.1,29.82,South,180,2.7,2.7,80,0.00,,,0.00,VWS V14.01,2013-05-29 20:00:00,
2013-05-29 15:05:00,74.3,68.1,29.82,SSE,158,2.2,2.2,81,0.00,,,0.00,VWS V14.01,2013-05-29 20:05:00,
2013-05-29 15:10:00,73.9,68.1,29.82,South,180,1.6,1.6,82,0.00,,,0.00,VWS V14.01,2013-05-29 20:10:00,
2013-05-29 15:15:00,73.8,68.3,29.79,South,180,1.6,1.6,83,0.00,,,0.00,VWS V14.01,2013-05-29 20:15:00,
2013-05-29 15:20:00,73.4,68.3,29.79,WSW,248,1.1,1.1,84,0.00,,,0.00,VWS V14.01,2013-05-29 20:20:00,
2013-05-29 15:25:00,73.2,68.8,29.79,East,90,0.9,0.9,86,0.00,,,0.00,VWS V14.01,2013-05-29 20:25:00,
2013-05-29 15:30:00,72.9,68.8,29.82,ENE,68,0.0,0.0,87,0.00,,,0.00,VWS V14.01,2013-05-29 20:30:00,
2013-05-29 15:35:00,72.7,68.9,29.82,East,90,2.0,2.0,88,0.00,,,0.00,VWS V14.01,2013-05-29 20:35:00,
2013-05-29 15:40:00,72.3,68.9,29.82,SE,135,0.0,0.0,89,0.00,,,0.00,VWS V14.01,2013-05-29 20:40:00,
2013-05-29 15:45:00,72.1,69.1,29.79,East,90,2.0,2.5,90,0.00,,,0.00,VWS V14.01,2013-05-29 20:45:00,
2013-05-29 15:50:00,72.0,68.9,29.79,ESE,112,0.9,0.9,90,0.00,,,0.00,VWS V14.01,2013-05-29 20:50:00,
2013-05-29 15:55:00,71.4,68.7,29.79,South,180,2.5,2.5,91,0.00,,,0.00,VWS V14.01,2013-05-29 20:55:00,
2013-05-29 16:00:00,71.2,68.8,29.79,ENE,68,0.0,0.0,92,0.04,,,0.04,VWS V14.01,2013-05-29 21:00:00,
2013-05-29 16:05:00,71.1,68.6,29.79,NE,45,0.0,0.0,92,0.04,,,0.04,VWS V14.01,2013-05-29 21:05:00,
2013-05-29 16:10:00,70.7,68.6,29.79,NNE,22,1.3,1.3,93,0.04,,,0.04,VWS V14.01,2013-05-29 21:10:00,
2013-05-29 16:15:00,70.7,68.6,29.76,NE,45,0.0,0.0,93,0.04,,,0.04,VWS V14.01,2013-05-29 21:15:00,
2013-05-29 16:20:00,70.7,68.6,29.76,SE,135,0.0,0.0,93,0.08,,,0.08,VWS V14.01,2013-05-29 21:20:00,
2013-05-29 16:25:00,71.1,69.2,29.76,SE,135,0.0,0.0,94,0.08,,,0.08,VWS V14.01,2013-05-29 21:25:00,
2013-05-29 16:30:00,71.8,70.0,29.76,SE,135,0.0,0.0,94,0.08,,,0.08,VWS V14.01,2013-05-29 21:30:00,
2013-05-29 16:35:00,72.5,71.0,29.76,SSW,202,3.1,3.1,95,0.08,,,0.08,VWS V14.01,2013-05-29 21:35:00,
2013-05-29 16:40:00,73.8,71.9,29.76,ESE,112,2.7,3.8,94,0.08,,,0.08,VWS V14.01,2013-05-29 21:40:00,
2013-05-29 16:45:00,75.6,73.4,29.74,SSW,202,2.0,2.0,93,0.08,,,0.08,VWS V14.01,2013-05-29 21:45:00,
2013-05-29 16:50:00,75.6,72.4,29.74,ESE,112,2.7,2.7,90,0.08,,,0.08,VWS V14.01,2013-05-29 21:50:00,
2013-05-29 16:55:00,75.4,72.2,29.74,South,180,4.3,4.3,90,0.08,,,0.08,VWS V14.01,2013-05-29 21:55:00,
2013-05-29 17:00:00,75.7,72.3,29.71,ENE,68,4.7,4.7,89,0.04,,,0.08,VWS V14.01,2013-05-29 22:00:00,
2013-05-29 17:05:00,75.4,71.9,29.71,NNW,338,2.9,3.4,89,0.04,,,0.08,VWS V14.01,2013-05-29 22:05:00,
2013-05-29 17:10:00,75.4,71.9,29.71,NNE,22,2.7,2.7,89,0.04,,,0.08,VWS V14.01,2013-05-29 22:10:00,
2013-05-29 17:15:00,75.2,71.7,29.71,ENE,68,0.0,2.7,89,0.04,,,0.08,VWS V14.01,2013-05-29 22:15:00,
2013-05-29 17:20:00,75.2,71.7,29.74,NNE,22,7.4,7.4,89,0.00,,,0.08,VWS V14.01,2013-05-29 22:20:00,
2013-05-29 17:25:00,74.5,71.0,29.74,ENE,68,4.7,4.7,89,0.00,,,0.08,VWS V14.01,2013-05-29 22:25:00,
2013-05-29 17:30:00,74.1,70.3,29.74,SSE,158,3.4,4.0,88,0.00,,,0.08,VWS V14.01,2013-05-29 22:30:00,
2013-05-29 17:35:00,73.9,70.2,29.74,SE,135,3.8,3.8,88,0.00,,,0.08,VWS V14.01,2013-05-29 22:35:00,
2013-05-29 17:40:00,73.9,70.5,29.74,South,180,6.3,6.3,89,0.00,,,0.08,VWS V14.01,2013-05-29 22:40:00,
2013-05-29 21:30:00,73.9,70.5,29.74,SSE,158,1.3,6.3,89,0.00,,,0.08,VWS V14.01,2013-05-30 02:30:00,
2013-05-29 21:35:00,66.9,63.9,29.76,SE,135,3.1,3.6,90,0.00,,,0.08,VWS V14.01,2013-05-30 02:35:00,
2013-05-29 21:40:00,66.9,63.9,29.76,ENE,68,2.7,3.6,90,0.00,,,0.08,VWS V14.01,2013-05-30 02:40:00,
2013-05-29 21:45:00,66.4,64.0,29.76,SSW,202,9.6,9.6,92,0.04,,,0.12,VWS V14.01,2013-05-30 02:45:00,
2013-05-29 21:50:00,65.7,64.5,29.76,South,180,7.8,13.0,96,0.12,,,0.20,VWS V14.01,2013-05-30 02:50:00,
2013-05-29 21:55:00,64.8,63.9,29.76,SSE,158,1.6,4.7,97,0.29,,,0.37,VWS V14.01,2013-05-30 02:55:00,
2013-05-29 22:00:00,64.4,63.5,29.76,SSE,158,2.7,4.0,97,0.33,,,0.41,VWS V14.01,2013-05-30 03:00:00,
2013-05-29 22:05:00,64.2,63.7,29.76,SSE,158,3.1,3.1,98,0.33,,,0.41,VWS V14.01,2013-05-30 03:05:00,
2013-05-29 22:10:00,64.2,63.7,29.76,SSE,158,3.8,4.3,98,0.33,,,0.41,VWS V14.01,2013-05-30 03:10:00,
2013-05-29 22:15:00,64.4,63.8,29.76,SE,135,5.8,5.8,98,0.33,,,0.41,VWS V14.01,2013-05-30 03:15:00,
2013-05-29 22:20:00,64.4,63.8,29.74,East,90,2.7,5.6,98,0.33,,,0.41,VWS V14.01,2013-05-30 03:20:00,
2013-05-29 22:25:00,64.4,63.8,29.74,SE,135,3.6,4.0,98,0.33,,,0.41,VWS V14.01,2013-05-30 03:25:00,
2013-05-29 22:30:00,64.4,63.8,29.79,SE,135,4.7,6.5,98,0.33,,,0.41,VWS V14.01,2013-05-30 03:30:00,
2013-05-29 22:35:00,64.4,63.8,29.79,SE,135,3.4,4.3,98,0.33,,,0.41,VWS V14.01,2013-05-30 03:35:00,
2013-05-29 22:40:00,64.4,63.8,29.79,SSE,158,3.6,3.8,98,0.33,,,0.41,VWS V14.01,2013-05-30 03:40:00,
2013-05-29 22:45:00,64.4,63.8,29.74,SE,135,1.1,1.3,98,0.29,,,0.41,VWS V14.01,2013-05-30 03:45:00,
2013-05-29 22:50:00,64.2,63.7,29.74,South,180,0.0,0.0,98,0.25,,,0.41,VWS V14.01,2013-05-30 03:50:00,
2013-05-29 22:55:00,64.2,63.7,29.74,NE,45,1.6,1.6,98,0.04,,,0.41,VWS V14.01,2013-05-30 03:55:00,
2013-05-29 23:00:00,64.2,63.7,29.76,SSE,158,2.2,2.7,98,0.00,,,0.41,VWS V14.01,2013-05-30 04:00:00,
2013-05-29 23:01:00,64.2,63.7,29.76,SSW,202,1.3,1.3,98,0.00,,,0.41,VWS V14.01,2013-05-30 04:01:00,
2013-05-29 23:06:00,64.2,63.7,29.76,ENE,68,2.7,2.7,98,0.04,,,0.45,VWS V14.01,2013-05-30 04:06:00,
2013-05-29 23:11:00,64.2,63.7,29.76,ENE,68,0.9,0.9,98,0.04,,,0.45,VWS V14.01,2013-05-30 04:11:00,
2013-05-29 23:16:00,64.2,63.7,29.76,SSE,158,2.5,2.5,98,0.04,,,0.45,VWS V14.01,2013-05-30 04:16:00,
2013-05-29 23:21:00,64.2,63.7,29.76,East,90,0.0,1.1,98,0.04,,,0.45,VWS V14.01,2013-05-30 04:21:00,
2013-05-29 23:26:00,64.0,63.5,29.76,SE,135,3.6,3.6,98,0.04,,,0.45,VWS V14.01,2013-05-30 04:26:00,
2013-05-29 23:31:00,64.0,63.5,29.76,SSW,202,2.7,2.7,98,0.04,,,0.45,VWS V14.01,2013-05-30 04:31:00,
2013-05-29 23:36:00,64.0,63.5,29.76,ESE,112,3.4,3.4,98,0.04,,,0.45,VWS V14.01,2013-05-30 04:36:00,
2013-05-29 23:41:00,64.0,63.5,29.76,ENE,68,2.7,2.7,98,0.04,,,0.45,VWS V14.01,2013-05-30 04:41:00,
2013-05-29 23:46:00,63.9,63.3,29.76,South,180,0.9,3.6,98,0.04,,,0.45,VWS V14.01,2013-05-30 04:46:00,
2013-05-29 23:51:00,63.9,63.3,29.76,ESE,112,3.4,3.4,98,0.04,,,0.45,VWS V14.01,2013-05-30 04:51:00,
2013-05-29 23:56:00,63.9,63.3,29.76,SSE,158,4.9,4.9,98,0.04,,,0.45,VWS V14.01,2013-05-30 04:56:00,